Tracking 27420 objects as of 28-May-2023
HD Live streaming from Space Station
objects crossing your sky now

STARLINK-6252

Track STARLINK-6252 now!
10-day predictions
STARLINK-6252 is classified as:


NORAD ID: 56555
Int'l Code: 2023-065BE
Perigee: 360.9 km
Apogee: 363.4 km
Inclination: 43.0 °
Period: 91.6 minutes
Semi major axis: 6733 km
RCS: Unknown
Launch date: May 14, 2023
Source: United States (US)
Launch site: AIR FORCE EASTERN TEST RANGE (AFETR)
Your satellite tracking list
Your tracking list is empty




NASA's NSSDC Master Catalog

Two Line Element Set (TLE):
1 56555U 23065BE  23147.87137489  .00005895  00000-0  48354-4 0  9991
2 56555  43.0009   1.8158 0001908 263.4892  96.5759 15.71361584  3363
Source of the keplerian elements: AFSPC